Location: Oakland
(41.0130°N, 74.2650°W)
Time: 04:23:02
(UTC-04:00)

Daily predictions for brighter satellites

Satellite Brightness Start Highest point End
(mag) Time Altitude Azimuth Time Altitude Azimuth Time Altitude Azimuth
CZ-4 R/B 3.9 00:01:30 10° NNE 00:06:23 84° NNW 00:06:23 84° NNW
Cosmos 923 Rocket 4.4 00:07:50 52° ENE 00:07:50 52° ENE 00:12:20 10° NNE
Cosmos 1680 Rocket 4.3 00:09:10 39° ENE 00:09:10 39° ENE 00:13:11 10° NNE
Cosmos 2237 Rocket 2.1 00:05:11 10° NNW 00:10:53 76° WSW 00:11:02 75° SW
Cosmos 2082 3.5 00:16:48 84° S 00:17:00 88° ESE 00:22:46 10° NNE
CZ-4B R/B 3.8 00:16:01 10° NNE 00:20:34 58° ENE 00:20:34 58° ENE
USA 229 DEB 4.2 00:26:18 41° ESE 00:26:18 41° ESE 00:32:16 10° NE
USA 229 4.2 00:26:25 41° ESE 00:26:25 41° ESE 00:32:21 10° NE
H-2A R/B 2.8 00:26:57 50° NNE 00:26:57 50° NNE 00:30:20 10° N
COBE Rocket 4.5 00:23:50 10° N 00:28:20 46° WNW 00:28:22 46° WNW
Mayak -0.4 00:24:25 10° N 00:27:37 50° N 00:27:37 50° N
Cosmos 2266 Rocket 3.9 00:25:57 10° N 00:32:20 85° W 00:33:02 73° S
Meteor 2-11 Rocket 4.3 00:32:08 75° SW 00:32:40 83° W 00:38:46 10° N
CZ-4C R/B 4.1 00:42:02 10° WNW 00:48:02 26° WSW 00:48:29 26° WSW
Cosmos 1400 Rocket 4.0 00:53:58 42° NNE 00:53:58 42° NNE 00:56:47 10° NNE
COSMOS 2455 3.7 00:50:51 34° W 00:52:50 44° NW 00:58:37 10° NNE
Cosmos 1825 Rocket 4.3 00:54:50 51° NNE 00:54:50 51° NNE 00:58:13 10° N
Cosmos 2219 Rocket 4.4 00:57:19 10° WNW 00:59:19 13° W 00:59:19 13° W
Cosmos 1238 Rocket 3.7 01:05:17 55° N 01:05:17 55° N 01:08:27 10° N
Meteor 1-24 Rocket 3.7 01:15:29 72° ESE 01:15:39 73° E 01:21:31 10° NNE
Cosmos 1244 Rocket 4.3 01:12:45 10° N 01:19:04 83° W 01:19:42 73° SSW
Meteor 2-5 Rocket 3.8 01:22:13 64° W 01:22:35 66° WNW 01:28:29 10° N
Cosmos 2263 Rocket 3.2 01:24:40 33° ESE 01:24:40 33° ESE 01:29:39 10° NE
Cosmos 1943 4.5 01:20:45 10° N 01:25:59 36° ENE 01:28:31 24° ESE
Cosmos 1745 Rocket 4.3 01:19:52 10° N 01:26:09 59° E 01:27:28 50° SE
Cosmos 1315 Rocket 4.0 01:28:22 41° N 01:28:22 41° N 01:31:01 10° N
SL-16 R/B 2.9 01:22:05 10° NW 01:26:44 41° W 01:26:44 41° W
Cosmos 1371 Rocket 4.1 01:22:53 10° NNW 01:27:39 69° WNW 01:27:39 69° WNW
ISS -0.8 01:27:14 10° NW 01:27:41 13° NW 01:27:41 13° NW
Cosmos 1726 3.7 01:37:50 10° N 01:40:17 34° NNE 01:40:17 34° NNE
S3M 3.8 01:41:11 70° S 01:41:58 89° E 01:48:16 10° N
Cosmos 1452 Rocket 4.3 01:37:42 10° N 01:42:47 46° ENE 01:44:06 38° ESE
Cosmos 158 Rocket 4.5 01:43:12 51° ESE 01:43:15 51° ESE 01:48:28 10° NNE
Cosmos 2297 Rocket 4.4 01:41:29 12° W 01:44:30 18° NW 01:48:16 10° N
Cosmos 2056 Rocket 3.6 01:39:57 10° NNW 01:44:26 60° WNW 01:44:26 60° WNW
ADEOS Rocket 4.0 01:41:00 10° N 01:45:37 28° WNW 01:46:45 26° W
Cosmos 1346 Rocket 3.9 01:42:34 10° N 01:45:13 42° N 01:45:13 42° N
Cosmos-2242 4.0 01:45:48 10° NNW 01:48:51 40° NW 01:48:51 40° NW
Cosmos 1624 Rocket 4.5 01:49:53 10° NNW 01:54:27 49° W 01:54:27 49° W
Cosmos 1386 Rocket 4.4 01:49:28 10° N 01:55:50 82° E 01:57:07 59° SSE
NOSS 3-1 (C) 3.2 01:56:13 69° SW 01:56:58 84° NW 02:03:22 10° NE
Landsat 5 4.0 01:59:11 54° NE 01:59:11 54° NE 02:02:49 10° N
Cosmos 1603 3.5 01:53:29 10° NNW 01:59:09 75° WSW 01:59:24 74° SW
Meteor 2-13 Rocket 4.3 01:56:10 10° N 02:02:16 89° W 02:03:19 64° S
Cosmos 1709 Rocket 4.4 01:56:46 10° N 02:03:04 57° E 02:05:22 37° SE
Cosmos 1420 Rocket 4.1 02:06:10 10° NNW 02:11:24 70° ENE 02:12:23 56° SE
Cosmos 2285 Rocket 4.2 02:11:29 49° SSE 02:12:58 62° ESE 02:19:15 10° NNE
Meteor 2-1 Rocket 4.3 02:07:40 10° NNW 02:13:21 61° W 02:13:52 58° WSW
SL-14 R/B 3.9 02:15:20 52° NE 02:15:20 52° NE 02:18:32 10° NNE
CZ-4B R/B 2.7 02:15:56 41° N 02:15:56 41° N 02:18:17 10° N
NOSS 3-1 (A) 3.2 02:16:40 62° SW 02:17:44 86° NW 02:24:09 10° NE
SeaSat 1 4.5 02:13:56 10° ESE 02:17:57 26° NE 02:21:58 10° N
Cosmos 1626 3.4 02:22:28 34° E 02:22:28 34° E 02:25:40 10° NNE
Cosmos 1076 Rocket 4.3 02:22:38 42° ESE 02:22:59 43° E 02:27:06 10° NNE
Cosmos 1674 4.4 02:26:46 24° NW 02:26:46 24° NW 02:29:02 10° NNW
Spot 2 4.2 02:21:05 10° NNE 02:26:10 83° WNW 02:26:39 72° SW
CZ-2D R/B 3.1 02:23:22 10° NNE 02:28:11 37° E 02:29:47 30° SE
USA 267 4.0 02:22:13 10° ENE 02:28:11 37° SE 02:29:44 33° SSE
Meteor 1-21 Rocket 4.3 02:30:51 55° SW 02:32:06 75° W 02:38:04 10° N
Cosmos 1689 Rocket 3.9 02:34:07 30° NNW 02:34:07 30° NNW 02:35:51 10° NNW
SL-08 R/B 4.2 02:31:46 27° SE 02:34:06 48° ENE 02:38:50 10° N
Cosmos 2221 2.4 02:33:07 10° N 02:37:32 88° W 02:37:43 82° S
Genesis I 3.3 02:38:54 78° NNE 02:38:54 78° NNE 02:42:42 10° NNE
ARIANE 5 R/B 4.0 02:34:47 10° NE 02:39:06 27° E 02:41:23 20° SE
Cosmos 1340 3.3 02:36:14 10° NNW 02:39:09 47° NW 02:39:09 47° NW
Meteor 2-19 Rocket 4.5 02:38:43 10° N 02:44:49 78° E 02:47:41 33° SSE
Resurs 1-4 Rocket 2.5 02:41:34 10° NNE 02:46:49 57° E 02:48:39 37° SSE
Cosmos 1844 Rocket 3.8 02:47:20 25° SSE 02:49:40 35° ESE 02:54:47 10° NE
Aureole 1 Rocket 3.7 02:50:34 29° NNW 02:50:34 29° NNW 02:52:34 10° N
OAO 2 Rocket 4.1 02:54:02 34° SSE 02:54:02 34° SSE 02:57:47 10° ESE
IRS-P3 4.1 02:49:14 10° NNE 02:54:35 85° ESE 02:56:17 45° S
NPP 3.6 02:51:55 10° NNE 02:57:20 83° WNW 02:59:02 46° SSW
DELTA 2 R/B (1) 3.5 02:55:45 31° W 02:58:21 64° SSW 03:03:54 10° ESE
MOZ.5/SAFIR/RUBIN 5/SL-8 4.4 02:59:01 21° SE 03:02:03 56° ENE 03:06:43 10° N
SL-16 R/B 2.4 03:00:50 27° SSE 03:04:26 84° WSW 03:10:41 10° NNW
ADEOS II 4.3 03:02:44 10° NE 03:06:26 19° E 03:10:07 10° SE
Cosmos 1703 3.5 03:07:23 47° SSE 03:08:18 65° E 03:12:14 10° NNE
Cosmos 2263 Rocket 3.1 03:06:21 27° W 03:08:26 36° WNW 03:13:41 10° N
Cosmos 2315 Rocket 4.4 03:06:43 35° SW 03:08:47 47° WNW 03:14:48 10° N
Cosmos 1766 Rocket 3.6 03:08:01 45° SSE 03:09:18 74° E 03:13:39 10° NNE
Cosmos 1943 3.9 03:04:55 10° NW 03:09:56 33° WSW 03:10:17 33° WSW
GEOS 3 Rocket 4.5 03:06:12 10° NNE 03:11:11 41° NW 03:13:41 25° W
Cosmos 921 Rocket 2.9 03:07:07 10° NNW 03:11:26 89° ENE 03:13:09 37° SSE
NOSS 2-3 (D) 3.7 03:10:35 48° SSW 03:11:55 87° ESE 03:17:11 10° NE
BREEZE M DEB (TANK) 3.2 03:10:48 29° SW 03:15:03 77° SSE 03:18:25 10° ENE
Cosmos 1300 4.3 03:13:35 10° NW 03:15:57 22° WNW 03:15:57 22° WNW
Meteor 1-11 4.2 03:14:14 33° S 03:16:53 86° E 03:22:33 10° N
Cosmos 1331 Rocket 4.2 03:11:47 10° NNW 03:16:56 69° ENE 03:22:04 10° SSE
Cosmos 1269 Rocket 4.2 03:16:04 38° SW 03:17:54 58° WNW 03:23:09 10° NNE
UNKNOWN OBJECT B 4.3 03:17:46 10° NE 03:21:05 29° E 03:23:12 18° SSE
H-2A R/B 2.9 03:21:08 10° N 03:25:30 53° WNW 03:26:47 38° WSW
Meteor 2-2 Rocket 4.2 03:21:03 10° NNW 03:26:49 72° W 03:30:16 24° S
Cosmos 1455 2.1 03:23:12 10° N 03:27:00 85° E 03:28:26 36° S
Cosmos 2251 Rocket 4.1 03:27:52 22° S 03:31:12 54° ESE 03:36:27 10° NNE
COSMOS 2406 4.1 03:26:28 10° NNW 03:32:06 50° ENE 03:37:42 10° SE
NOSS 2-3 (E) 4.1 03:30:40 33° WSW 03:32:38 60° NW 03:37:56 10° NNE
Helios 1A Rocket 3.6 03:30:42 10° NNE 03:34:40 48° E 03:37:08 21° SSE
Cosmos 1408 Rocket 3.5 03:34:24 36° SSW 03:36:04 68° W 03:40:24 10° N
Cosmos 2058 2.9 03:34:44 30° S 03:36:45 84° E 03:40:59 10° N
Geosat 3.9 03:32:52 10° NNE 03:37:55 89° WNW 03:40:39 28° SSW
ADEOS 4.1 03:33:25 10° NNE 03:38:33 55° E 03:42:42 15° S
Cosmos 1151 Rocket 3.7 03:34:40 10° N 03:38:59 55° E 03:43:13 10° SSE
Timation 1 Rocket 4.4 03:36:42 24° SSW 03:40:24 74° ESE 03:46:22 10° NNE
ATLAS 2AS CENTAUR R/B 3.6 03:35:04 18° S 03:40:52 52° ESE 03:48:41 10° NE
CRYOSAT 2 4.3 03:39:49 22° S 03:43:01 77° W 03:47:56 10° N
CZ-2D R/B 3.8 03:43:37 10° NNE 03:48:04 71° ESE 03:51:11 19° S
Cosmos 2074 Rocket 4.2 03:43:05 10° NNW 03:49:03 51° W 03:53:18 19° SSW
Nadezhda 1 Rocket 4.0 03:45:18 21° SSW 03:49:32 70° W 03:55:51 10° N
SAR-Lupe-2 3.4 03:48:37 22° S 03:50:50 76° WSW 03:54:25 10° NNW
Cosmos 1607 4.1 03:44:56 10° NW 03:51:05 50° WSW 03:57:06 10° S
Cosmos 2184 Rocket 4.3 03:48:28 10° NNW 03:54:34 49° W 03:59:10 18° SSW
SeaSat 1 2.7 03:51:17 14° S 03:55:13 45° WSW 03:59:58 10° NW
Spot 4 Rocket 4.3 03:51:53 10° N 03:56:53 53° WNW 04:00:05 22° SW
Cosmos 2154 Rocket 4.0 03:50:46 10° N 03:57:05 82° W 04:03:24 10° S
Cosmos 1626 4.2 03:57:05 14° W 03:57:43 14° WNW 03:59:47 10° NW
Cosmos 1743 Rocket 3.6 04:04:18 20° SSW 04:07:14 63° W 04:11:32 10° N
CZ-2D R/B 3.3 04:03:44 10° N 04:08:04 27° WNW 04:11:08 16° WSW
Cosmos 2151 3.3 04:07:27 20° SSW 04:10:07 49° W 04:14:19 10° N
USA 267 3.5 04:04:56 10° NE 04:11:24 65° NW 04:17:05 14° WSW
Cosmos 1932 4.5 04:07:24 10° NW 04:13:29 58° WSW 04:19:30 10° SSE
ARIANE 5 R/B 3.4 04:13:39 10° N 04:18:13 34° WNW 04:21:44 15° SW
Cosmos 405 Rocket 2.6 04:14:55 10° NNW 04:18:45 79° W 04:22:30 10° S
Cosmos 1805 Rocket 4.5 04:17:30 10° SSE 04:21:39 47° E 04:25:49 10° NNE
ATLAS 3B R/B 3.7 04:15:38 10° NNW 04:22:04 49° NE 04:28:23 10° ESE
Meteor 2-10 Rocket 3.4 04:19:38 10° NNW 04:24:41 73° W 04:29:39 10° S
Resurs 1-4 Rocket 3.8 04:22:29 10° NNW 04:26:11 19° WNW 04:29:44 10° WSW
BREEZE-M DEB (TANK) 3.3 04:19:24 12° WSW 04:26:25 83° NNW 04:29:33 10° ENE
Cosmos 220 Rocket 4.4 04:24:16 15° SW 04:27:38 50° WNW 04:31:51 10° N
H-II Stage 2 4.4 04:24:03 14° SW 04:28:50 35° S 04:56:24 10° ESE
CZ-4B R/B 4.4 04:30:10 10° NE 04:33:23 30° E 04:36:37 10° SSE
Cosmos 1844 Rocket 3.7 04:29:01 13° WSW 04:33:32 34° WNW 04:38:40 10° N
OAO 2 Rocket 3.8 04:32:58 10° WSW 04:37:33 40° S 04:42:08 10° ESE
Cosmos 1441 Rocket 4.1 04:38:23 10° NNW 04:41:57 32° W 04:45:27 10° SSW
Cosmos 1707 Rocket 4.4 04:38:08 10° N 04:42:33 55° E 04:46:55 10° SSE
Cosmos 1500 Rocket 4.5 04:39:17 11° SW 04:43:08 32° WNW 04:47:08 10° NNW
SL-19 R/B 4.2 04:40:41 10° S 04:43:23 33° WSW 04:46:01 10° NW
Cosmos 2278 Rocket 2.2 04:37:59 10° SSW 04:43:39 82° WNW 04:49:22 10° NNE
DELTA 2 R/B (1) 4.5 04:39:37 10° W 04:44:18 28° SSW 04:49:00 10° SSE
USA 234 3.6 04:37:56 10° ESE 04:44:25 72° NE 04:50:56 10° NW
ADEOS II 2.4 04:41:20 10° N 04:46:26 52° WNW 04:51:31 10° SSW
SL-16 R/B 4.3 04:46:43 10° WSW 04:48:52 12° W 04:51:02 10° WNW
Cosmos 1833 Rocket 3.7 04:45:50 10° NNW 04:51:19 52° ENE 04:56:46 10° SE
Cosmos 2228 Rocket 4.4 04:49:18 10° NW 04:52:54 23° W 04:56:29 10° SW
Cosmos 1892 3.0 04:50:12 10° S 04:54:03 72° E 04:57:54 10° NNE
UNKNOWN OBJECT B 4.5 04:52:47 10° NNW 04:55:21 18° WNW 04:57:57 10° WSW
USA 238 DEB 3.8 04:55:37 10° NW 05:02:46 78° WSW 05:09:59 10° SSE
USA 238 3.8 04:55:44 10° NW 05:02:52 78° WSW 05:10:07 10° SSE
